[[{"header":{"parameterUnit":"m.s-1","parameterCategory":2,"la1":30.2991,"la2":30.254,"lo1":-89.0895,"lo2":-89.0444,"dy":0.0017,"dx":0.0017,"nx":28,"ny":28,"refTime":"2023-09-09T09:00:00:Z","depth":"0","parameterNumber":2,"parameterNumberName":"U-component_of_CURRENTS"},"data":[0,0,0,0,0,0,0,0,0,0,0,0,0,0,0,0,0,0,0,0,0,0,0,0,0,0,0,0,0,0,0,0,0,0,0,0,0,0,0,0,0,0,0,0,0,0,0,0,0,0,0,0,0,0,0,0,0,0,-0.2783,-0.2784,0,-0.2822,-0.2822,-0.2822,-0.2834,-0.2835,-0.2835,-0.2836,-0.2847,-0.2847,-0.2847,0,0,0,0,0,0,0,0,0,0,0,0,0,-0.2583,-0.2587,-0.2783,-0.2784,-0.2785,-0.2822,-0.2822,-0.2822,-0.2834,-0.2835,-0.2835,-0.2836,-0.2847,-0.2847,-0.2847,0,0,0,0,0,0,0,0,0,0,0,0,0,-0.2645,-0.2588,-0.2783,-0.2801,-0.2804,-0.2822,-0.2822,-0.2822,-0.2834,-0.2835,-0.2836,-0.2836,-0.2848,-0.2847,-0.2847,-0.2832,0,0,-0.2847,-0.2846,0,0,0,0,0,0,0,0,-0.2641,-0.2651,-0.2797,-0.28,-0.2803,-0.283,-0.2756,-0.2826,-0.2834,-0.2815,-0.2836,-0.2837,-0.2843,-0.2843,-0.284,-0.2833,-0.2833,-0.2847,-0.2846,-0.2846,-0.2846,0,0,0,0,0,0,0,-0.2637,-0.2649,-0.2791,-0.2799,-0.2802,-0.2761,-0.2771,-0.2768,-0.2819,-0.2817,-0.282,-0.2835,-0.2844,-0.284,-0.284,-0.2833,-0.2847,-0.2846,-0.2846,-0.2846,-0.2715,-0.2712,0,0,0,0,0,0,-0.2654,-0.2646,-0.279,-0.2793,-0.273,-0.2765,-0.2776,-0.2815,-0.282,-0.2823,-0.2834,-0.2835,-0.284,-0.284,-0.284,-0.2772,-0.2846,-0.2846,-0.2846,-0.2718,-0.2714,-0.2711,0,0,0,0,0,0,-0.2649,-0.2667,-0.2789,-0.2724,-0.2737,-0.277,-0.2812,-0.2816,-0.2819,-0.2834,-0.2836,-0.2836,-0.284,-0.2841,-0.2809,-0.2775,-0.2846,-0.2846,-0.2722,-0.2717,-0.2712,-0.2668,0,0,0,0,0,0,-0.2644,-0.2666,-0.2669,-0.2726,-0.2742,-0.2768,-0.2812,-0.2816,-0.283,-0.2832,-0.2836,-0.2838,-0.2841,-0.2809,-0.2809,-0.2776,-0.2846,-0.2727,-0.272,-0.2714,-0.2673,-0.2662,-0.2652,0,0,0,0,0,-0.2637,-0.262,-0.267,-0.2686,-0.2758,-0.2766,-0.2767,-0.2787,-0.283,-0.2799,-0.2807,-0.2838,-0.2768,-0.2807,-0.2807,-0.2773,-0.273,-0.2722,-0.2715,-0.2678,-0.2664,-0.2652,0,0,0,0,0,0,-0.2515,-0.2623,-0.2677,-0.2693,-0.2725,-0.277,-0.2739,-0.2789,-0.2776,-0.2775,-0.2809,-0.2808,-0.2759,-0.2764,-0.2806,-0.2708,-0.2748,-0.274,-0.272,-0.2707,-0.2696,-0.2724,-0.2846,0,0,0,0,0,-0.2504,-0.2531,-0.262,-0.2626,-0.2642,-0.2703,-0.2707,-0.2735,-0.2749,-0.2746,-0.2755,-0.2746,-0.2725,-0.2718,-0.2688,-0.2653,-0.2667,-0.2622,-0.2611,-0.2602,-0.2619,-0.2604,-0.2595,-0.2686,-0.2686,-0.2686,0,0,-0.2462,-0.2521,-0.2538,-0.2603,-0.2629,-0.264,-0.2702,-0.2699,-0.2706,-0.2748,-0.2719,-0.2708,-0.2703,-0.2646,-0.2625,-0.2653,-0.2572,-0.2592,-0.2586,-0.2608,-0.2595,-0.2587,-0.258,-0.2681,-0.2682,-0.2682,0,0,-0.2387,-0.2444,-0.2448,-0.2476,-0.2525,-0.2561,-0.257,-0.2616,-0.2622,-0.2607,-0.2629,-0.2605,-0.2575,-0.2565,-0.2562,-0.2475,-0.251,-0.245,-0.2434,-0.2418,-0.2412,-0.2407,-0.2384,-0.2377,-0.2453,-0.2453,-0.2453,0,-0.2338,-0.2379,-0.2435,-0.2444,-0.2467,-0.2535,-0.2542,-0.2547,-0.2572,-0.258,-0.2577,-0.2547,-0.2538,-0.2515,-0.2473,-0.2457,-0.2452,-0.2495,-0.241,-0.2405,-0.2401,-0.2379,-0.2373,-0.245,-0.245,-0.245,-0.2451,0,-0.2285,-0.2314,-0.2301,-0.2366,-0.2376,-0.2378,-0.2431,-0.2426,-0.2455,-0.2484,-0.2454,-0.2435,-0.2434,-0.2405,-0.2418,-0.2378,-0.2383,-0.2398,-0.246,-0.2391,-0.2369,-0.2363,-0.2445,-0.2446,-0.2447,-0.2448,0,0,-0.2214,-0.2267,-0.2267,-0.2297,-0.2348,-0.2358,-0.2353,-0.2386,-0.2408,-0.2387,-0.2403,-0.2349,-0.237,-0.2365,-0.2369,-0.2353,-0.2302,-0.2363,-0.2364,-0.237,-0.226,-0.2203,-0.2192,-0.2308,-0.2308,-0.2307,-0.2248,0,-0.2173,-0.2182,-0.222,-0.2226,-0.2244,-0.23,-0.2301,-0.2328,-0.2348,-0.2357,-0.2354,-0.2347,-0.2347,-0.2347,-0.2328,-0.232,-0.2289,-0.2317,-0.2301,-0.23,-0.2284,-0.2184,-0.2105,-0.204,-0.2242,-0.2241,-0.2241,0,-0.2131,-0.215,-0.2153,-0.2208,-0.222,-0.2223,-0.2268,-0.2278,-0.2307,-0.2321,-0.2326,-0.234,-0.2322,-0.2323,-0.2283,-0.2303,-0.2274,-0.2258,-0.2256,-0.2226,-0.2234,-0.2143,-0.2023,-0.2,-0.2233,-0.2233,-0.2234,0,-0.2076,-0.211,-0.2117,-0.2133,-0.2188,-0.2194,-0.2219,-0.2258,-0.228,-0.2301,-0.2316,-0.2313,-0.2305,-0.228,-0.2254,-0.2267,-0.2204,-0.2221,-0.2137,-0.2134,-0.2075,-0.2067,-0.1961,-0.2173,-0.2173,-0.2173,-0.2173,0,-0.2038,-0.2041,-0.209,-0.2094,-0.2108,-0.2154,-0.2173,-0.2202,-0.2243,-0.2258,-0.2293,-0.2297,-0.2293,-0.2271,-0.2244,-0.2168,-0.2193,-0.2117,-0.2108,-0.2049,-0.2039,-0.2028,-0.2057,-0.2171,-0.2171,-0.2172,-0.2172,0,-0.1973,-0.2008,-0.2022,-0.2069,-0.2084,-0.2088,-0.2148,-0.216,-0.2207,-0.2227,-0.2232,-0.2272,-0.2236,-0.2224,-0.2177,-0.2141,-0.2044,-0.2051,-0.1977,-0.1958,-0.1855,-0.1885,-0.1799,-0.1748,-0.1943,-0.1941,-0.1939,0,-0.1939,-0.1939,-0.199,-0.1998,-0.2014,-0.2039,-0.2056,-0.2124,-0.2146,-0.2204,-0.2201,-0.2196,-0.2168,-0.2088,-0.203,-0.1955,-0.1959,-0.1838,-0.1841,-0.1816,-0.1843,-0.1869,-0.1834,-0.1734,-0.1731,-0.1728,-0.1726,0,-0.1868,-0.1888,-0.19,-0.1919,-0.1934,-0.1959,-0.1989,-0.2005,-0.2075,-0.2093,-0.2093,-0.2075,-0.2028,-0.1922,-0.1844,-0.1794,-0.1791,-0.1781,-0.1773,-0.1675,-0.168,-0.1637,-0.1814,-0.1703,-0.1706,-0.1707,-0.1709,-0.171,-0.1804,-0.1798,-0.1813,-0.1819,-0.184,-0.1834,-0.1811,-0.1858,-0.1863,-0.1857,-0.1932,-0.1878,-0.1842,-0.172,-0.1663,-0.1552,-0.1617,-0.1507,-0.1545,-0.1573,-0.1516,-0.1635,-0.1508,-0.1509,-0.151,-0.1511,-0.1512,0,-0.1705,-0.1704,-0.171,-0.1704,-0.1671,-0.172,-0.1729,-0.1684,-0.1639,-0.1686,-0.1668,-0.1643,-0.1538,-0.1512,-0.1423,-0.1347,-0.1318,-0.1315,-0.1336,-0.1311,-0.1414,-0.1396,-0.1218,-0.1218,-0.1218,-0.1218,-0.1218,-0.1218,-0.165,-0.1609,-0.1611,-0.1518,-0.1512,-0.1424,-0.1395,-0.1358,-0.1366,-0.1322,-0.1339,-0.1394,-0.1387,-0.1455,-0.1335,-0.1256,-0.1232,-0.1189,-0.1215,-0.1305,-0.1326,-0.1347,-0.1333,-0.1145,-0.1145,-0.1054,-0.1054,-0.1053]},{"header":{"parameterUnit":"m.s-1","parameterCategory":2,"la1":30.2991,"la2":30.254,"lo1":-89.0895,"lo2":-89.0444,"dy":0.0017,"dx":0.0017,"nx":28,"ny":28,"refTime":"2023-09-09T09:00:00:Z","depth":"0","parameterNumber":3,"parameterNumberName":"V-component_of_CURRENTS"},"data":[0,0,0,0,0,0,0,0,0,0,0,0,0,0,0,0,0,0,0,0,0,0,0,0,0,0,0,0,0,0,0,0,0,0,0,0,0,0,0,0,0,0,0,0,0,0,0,0,0,0,0,0,0,0,0,0,0,0,-0.0477,-0.0476,0,-0.0354,-0.0352,-0.0351,-0.0265,-0.0265,-0.0264,-0.0264,-0.0102,-0.0098,-0.0094,0,0,0,0,0,0,0,0,0,0,0,0,0,-0.0541,-0.0541,-0.0478,-0.0476,-0.0475,-0.0354,-0.0352,-0.035,-0.0265,-0.0265,-0.0264,-0.0264,-0.0103,-0.0098,-0.0094,0,0,0,0,0,0,0,0,0,0,0,0,0,-0.0474,-0.0541,-0.0478,-0.0419,-0.0413,-0.0354,-0.0352,-0.035,-0.0265,-0.0265,-0.0264,-0.0263,-0.0105,-0.0099,-0.0093,-0.0071,0,0,-0.0075,-0.0073,0,0,0,0,0,0,0,0,-0.0478,-0.0471,-0.0429,-0.0423,-0.0416,-0.0326,-0.0315,-0.0255,-0.0266,-0.032,-0.0264,-0.0263,-0.0175,-0.0163,-0.0139,-0.0064,-0.0057,-0.0075,-0.0071,-0.0069,-0.0067,0,0,0,0,0,0,0,-0.0482,-0.0475,-0.0427,-0.0428,-0.042,-0.0365,-0.0355,-0.0303,-0.0251,-0.0315,-0.0309,-0.0298,-0.0171,-0.0145,-0.0135,-0.0055,-0.0075,-0.007,-0.0066,-0.0064,0.004,0.004,0,0,0,0,0,0,-0.0507,-0.0481,-0.0431,-0.0423,-0.0448,-0.0365,-0.0354,-0.0354,-0.0252,-0.0236,-0.0299,-0.0295,-0.0156,-0.0142,-0.0129,-0.0094,-0.0069,-0.0063,-0.006,0.0041,0.004,0.0039,0,0,0,0,0,0,-0.0509,-0.0505,-0.0436,-0.0449,-0.0437,-0.0366,-0.0365,-0.0352,-0.0325,-0.024,-0.0224,-0.0287,-0.0154,-0.0137,-0.0086,-0.0087,-0.0061,-0.0056,0.0042,0.0041,0.004,-0.0025,0,0,0,0,0,0,-0.0512,-0.0506,-0.0515,-0.0452,-0.0437,-0.0406,-0.0366,-0.035,-0.0321,-0.0314,-0.0224,-0.0208,-0.0153,-0.0095,-0.008,-0.0078,-0.0051,0.0043,0.0041,0.004,-0.0022,-0.0028,-0.0034,0,0,0,0,0,-0.0515,-0.0522,-0.0517,-0.051,-0.0452,-0.0407,-0.0394,-0.0339,-0.0321,-0.0312,-0.0255,-0.0211,-0.0093,-0.009,-0.0073,-0.007,0.0043,0.0042,0.004,-0.002,-0.0027,-0.0034,0,0,0,0,0,0,-0.0549,-0.0513,-0.0505,-0.0501,-0.0464,-0.0393,-0.0377,-0.0347,-0.0295,-0.0288,-0.0212,-0.0192,-0.015,-0.0107,-0.0106,-0.0047,-0.0021,-0.0019,-0.0073,-0.0079,-0.0085,-0.0095,-0.0046,0,0,0,0,0,-0.0567,-0.0566,-0.0521,-0.0519,-0.0505,-0.0447,-0.0423,-0.039,-0.0335,-0.0311,-0.0251,-0.0193,-0.0144,-0.011,-0.0061,-0.0022,0.0017,-0.0013,-0.0019,-0.0024,-0.0023,0.0027,0.0026,0.0034,0.0034,0.0034,0,0,-0.058,-0.056,-0.0559,-0.0527,-0.0493,-0.0473,-0.043,-0.0398,-0.0379,-0.0302,-0.0259,-0.021,-0.0141,-0.0099,-0.0077,-0.006,-0.0008,-0.0026,-0.0031,-0.0026,0.0025,0.0025,0.0024,0.0033,0.0033,0.0033,0,0,-0.0599,-0.059,-0.0594,-0.0569,-0.053,-0.0494,-0.0492,-0.0432,-0.0402,-0.0361,-0.0306,-0.0259,-0.0182,-0.0129,-0.0094,-0.0104,-0.0045,-0.0095,-0.012,-0.0073,-0.0073,-0.0072,-0.0031,-0.0026,-0.0092,-0.0092,-0.0093,0,-0.0617,-0.062,-0.0586,-0.0579,-0.0564,-0.0511,-0.0507,-0.0468,-0.04,-0.0378,-0.0359,-0.0251,-0.0194,-0.0136,-0.014,-0.0114,-0.0082,-0.0098,-0.008,-0.0078,-0.0076,-0.0034,-0.0027,-0.0096,-0.0095,-0.0095,-0.0095,0,-0.0636,-0.0638,-0.0635,-0.0617,-0.0595,-0.0582,-0.0533,-0.0508,-0.0473,-0.0431,-0.0376,-0.03,-0.0235,-0.0216,-0.0175,-0.0137,-0.0118,-0.0097,-0.0062,-0.0081,-0.0035,-0.0027,-0.0101,-0.0099,-0.0098,-0.0098,0,0,-0.0673,-0.0657,-0.0655,-0.0659,-0.0618,-0.0601,-0.0576,-0.0535,-0.0518,-0.0455,-0.0423,-0.0343,-0.0304,-0.0263,-0.0208,-0.0163,-0.0125,-0.0131,-0.0127,-0.0089,-0.0025,0.0011,0.0024,-0.0103,-0.0102,-0.0101,-0.0,0,-0.0699,-0.0714,-0.0689,-0.0694,-0.0697,-0.0649,-0.063,-0.0586,-0.0539,-0.0494,-0.0415,-0.0364,-0.032,-0.0291,-0.0241,-0.015,-0.0107,-0.0155,-0.0012,-0.0007,0.0028,0.0033,0.0068,0.0162,0.0008,0.0009,0.001,0,-0.0722,-0.0731,-0.0752,-0.0744,-0.074,-0.0731,-0.0697,-0.0672,-0.0596,-0.0559,-0.0492,-0.0426,-0.0342,-0.0311,-0.0168,-0.0201,-0.0123,-0.0057,-0.0051,0.0013,0.0044,0.0159,0.0183,0.0319,0.0023,0.0022,0.0021,0,-0.0768,-0.077,-0.0796,-0.0792,-0.0773,-0.077,-0.0753,-0.0693,-0.0673,-0.0596,-0.0567,-0.0462,-0.0401,-0.0294,-0.0152,-0.016,0.0003,0.0014,0.0119,0.0123,0.0197,0.0206,0.0373,0.0105,0.0105,0.0105,0.0105,0,-0.0804,-0.0819,-0.0822,-0.0834,-0.0858,-0.0822,-0.0825,-0.0788,-0.0733,-0.0707,-0.0606,-0.0554,-0.0395,-0.0277,-0.0161,0.0009,0.0001,0.0121,0.0155,0.0174,0.0178,0.0336,0.038,0.0109,0.0108,0.0107,0.0107,0,-0.0844,-0.0847,-0.0877,-0.088,-0.0881,-0.0897,-0.0882,-0.0879,-0.0818,-0.0778,-0.0754,-0.0614,-0.0454,-0.0289,-0.0098,0.0004,0.0247,0.0215,0.0224,0.0257,0.0472,0.0509,0.0696,0.0785,0.0348,0.035,0.0351,0,-0.0865,-0.0887,-0.0919,-0.0944,-0.0948,-0.0965,-0.0973,-0.0928,-0.0915,-0.0809,-0.0789,-0.0627,-0.0496,-0.02,0.0015,0.0237,0.0331,0.0384,0.0378,0.05,0.0567,0.0587,0.0649,0.045,0.0453,0.0454,0.0455,0,-0.0903,-0.0918,-0.0948,-0.1004,-0.1029,-0.1055,-0.1056,-0.1057,-0.0991,-0.093,-0.0817,-0.0701,-0.0403,-0.0118,0.0168,0.0296,0.049,0.0424,0.0561,0.0671,0.0697,0.0792,0.0361,0.047,0.0469,0.0468,0.0467,0.0466,-0.0927,-0.0967,-0.101,-0.1059,-0.1094,-0.1124,-0.1131,-0.111,-0.1069,-0.095,-0.0845,-0.0631,-0.0228,0.0195,0.0346,0.0675,0.0632,0.0767,0.0804,0.0816,0.0899,0.0493,0.0631,0.063,0.063,0.0629,0.0629,0,-0.0952,-0.0999,-0.1057,-0.1114,-0.1154,-0.1157,-0.1166,-0.1141,-0.1078,-0.0938,-0.0795,-0.0337,0.0056,0.0419,0.0879,0.1052,0.1089,0.1128,0.1178,0.1226,0.0888,0.0891,0.108,0.108,0.108,0.1079,0.1079,0.1079,-0.0966,-0.103,-0.1067,-0.1141,-0.1176,-0.1193,-0.1189,-0.1129,-0.1021,-0.0751,-0.0485,-0.0279,0.0245,0.0967,0.138,0.1405,0.156,0.1528,0.1616,0.1388,0.1358,0.1328,0.1344,0.1625,0.1626,0.1955,0.1958,0.196]}],[{"header":{"parameterUnit":"m.s-1","parameterCategory":2,"la1":30.2991,"la2":30.254,"lo1":-89.0895,"lo2":-89.0444,"dy":0.0017,"dx":0.0017,"nx":28,"ny":28,"refTime":"2023-09-09T09:00:00:Z","depth":"2","parameterNumber":2,"parameterNumberName":"U-component_of_CURRENTS"},"data":[0,0,0,0,0,0,0,0,0,0,0,0,0,0,0,0,0,0,0,0,0,0,0,0,0,0,0,0,0,0,0,0,0,0,0,0,0,0,0,0,0,0,0,0,0,0,0,0,0,0,0,0,0,0,0,0,0,0,-0.2181,-0.2181,0,-0.2221,-0.2222,-0.2223,-0.2272,-0.2272,-0.2272,-0.2272,-0.2311,-0.2312,-0.2313,0,0,0,0,0,0,0,0,0,0,0,0,0,-0.2157,-0.2157,-0.2181,-0.2181,-0.2181,-0.2221,-0.2222,-0.2223,-0.2272,-0.2272,-0.2272,-0.2273,-0.2311,-0.2312,-0.2313,0,0,0,0,0,0,0,0,0,0,0,0,0,-0.2184,-0.2158,-0.2181,-0.2206,-0.2208,-0.2221,-0.2222,-0.2224,-0.2272,-0.2272,-0.2272,-0.2273,-0.2311,-0.2312,-0.2313,-0.2313,0,0,-0.2317,-0.2318,0,0,0,0,0,0,0,0,-0.2183,-0.2186,-0.2202,-0.2204,-0.2207,-0.2237,-0.2228,-0.2252,-0.2272,-0.2253,-0.2272,-0.2273,-0.2283,-0.2286,-0.2301,-0.2315,-0.2317,-0.2317,-0.2318,-0.2318,-0.2319,0,0,0,0,0,0,0,-0.2181,-0.2184,-0.2203,-0.2202,-0.2205,-0.2218,-0.2223,-0.2233,-0.227,-0.2255,-0.2257,-0.2253,-0.2285,-0.23,-0.2302,-0.2317,-0.2317,-0.2318,-0.2319,-0.2319,-0.2314,-0.2313,0,0,0,0,0,0,-0.2164,-0.2183,-0.2201,-0.2203,-0.2189,-0.2218,-0.2224,-0.2231,-0.227,-0.2274,-0.2252,-0.2255,-0.2297,-0.23,-0.2303,-0.2296,-0.2318,-0.2319,-0.232,-0.2315,-0.2314,-0.2313,0,0,0,0,0,0,-0.2163,-0.2166,-0.2199,-0.2189,-0.2193,-0.2217,-0.2226,-0.2232,-0.2256,-0.2267,-0.2273,-0.227,-0.2298,-0.2302,-0.2307,-0.2298,-0.232,-0.2321,-0.2316,-0.2315,-0.2314,-0.2287,0,0,0,0,0,0,-0.2163,-0.2166,-0.217,-0.2188,-0.2193,-0.2209,-0.2225,-0.2232,-0.2249,-0.2253,-0.2283,-0.2287,-0.2298,-0.2305,-0.2308,-0.23,-0.2322,-0.2317,-0.2316,-0.2314,-0.2289,-0.2285,-0.2282,0,0,0,0,0,-0.2162,-0.216,-0.2171,-0.2173,-0.2198,-0.2208,-0.2213,-0.2235,-0.2249,-0.2259,-0.2271,-0.2287,-0.2297,-0.2305,-0.2309,-0.2302,-0.2318,-0.2316,-0.2314,-0.2291,-0.2286,-0.2282,0,0,0,0,0,0,-0.2143,-0.2165,-0.2177,-0.218,-0.2194,-0.2214,-0.2218,-0.2237,-0.2258,-0.2261,-0.2281,-0.2284,-0.2283,-0.2294,-0.2303,-0.2293,-0.2308,-0.2307,-0.2289,-0.2285,-0.2281,-0.2286,-0.2323,0,0,0,0,0,-0.2141,-0.2149,-0.217,-0.2169,-0.2177,-0.2202,-0.221,-0.2227,-0.2241,-0.2252,-0.2267,-0.2276,-0.2277,-0.2283,-0.2286,-0.2287,-0.2286,-0.2281,-0.2278,-0.2275,-0.228,-0.2267,-0.2263,-0.2307,-0.2307,-0.2307,0,0,-0.2127,-0.2141,-0.2143,-0.2166,-0.2179,-0.2189,-0.221,-0.222,-0.2227,-0.225,-0.2261,-0.2265,-0.2273,-0.2268,-0.2268,-0.2279,-0.2258,-0.2272,-0.227,-0.2277,-0.2264,-0.226,-0.2256,-0.2306,-0.2306,-0.2306,0,0,-0.2098,-0.2122,-0.2121,-0.2138,-0.2157,-0.2176,-0.218,-0.2206,-0.2219,-0.2225,-0.2236,-0.2236,-0.2245,-0.2246,-0.2248,-0.2226,-0.2236,-0.2225,-0.2217,-0.2204,-0.22,-0.2197,-0.2176,-0.2171,-0.2227,-0.2227,-0.2227,0,-0.2081,-0.2089,-0.2119,-0.2125,-0.2136,-0.2171,-0.2175,-0.2191,-0.2212,-0.2219,-0.2222,-0.2229,-0.2233,-0.2229,-0.2217,-0.2219,-0.2212,-0.2235,-0.22,-0.2197,-0.2194,-0.2173,-0.2168,-0.2225,-0.2225,-0.2226,-0.2226,0,-0.2052,-0.2068,-0.2066,-0.2093,-0.211,-0.2118,-0.2145,-0.2161,-0.2179,-0.2193,-0.2194,-0.2196,-0.2204,-0.2196,-0.2201,-0.2186,-0.2185,-0.2194,-0.2213,-0.2188,-0.2167,-0.2163,-0.2223,-0.2224,-0.2224,-0.2224,0,0,-0.1995,-0.204,-0.204,-0.2058,-0.21,-0.2109,-0.2124,-0.2147,-0.2161,-0.2169,-0.2176,-0.2166,-0.2178,-0.2179,-0.2184,-0.2171,-0.2136,-0.2175,-0.2175,-0.2158,-0.21,-0.2037,-0.2026,-0.2141,-0.2141,-0.214,-0.2087,0,-0.1966,-0.1975,-0.2007,-0.2021,-0.2035,-0.2081,-0.2095,-0.2121,-0.2144,-0.2159,-0.2162,-0.2167,-0.2169,-0.2172,-0.2159,-0.2151,-0.2126,-0.215,-0.2124,-0.2123,-0.2074,-0.202,-0.1884,-0.182,-0.2082,-0.2082,-0.2081,0,-0.193,-0.1947,-0.1955,-0.2007,-0.2016,-0.2027,-0.2071,-0.2088,-0.2122,-0.2139,-0.215,-0.2165,-0.2156,-0.2156,-0.2125,-0.2141,-0.2115,-0.2101,-0.2099,-0.205,-0.2052,-0.189,-0.1802,-0.2074,-0.2075,-0.2075,-0.2076,0,-0.1879,-0.1914,-0.1923,-0.1938,-0.1994,-0.2003,-0.203,-0.2073,-0.2096,-0.2125,-0.2141,-0.2146,-0.2143,-0.2122,-0.21,-0.2112,-0.2056,-0.2071,-0.1985,-0.198,-0.1864,-0.185,-0.203,-0.203,-0.203,-0.203,-0.203,0,-0.1844,-0.185,-0.1899,-0.1903,-0.1921,-0.1967,-0.199,-0.2022,-0.2066,-0.2083,-0.2123,-0.2129,-0.2134,-0.2114,-0.2091,-0.2017,-0.2047,-0.1968,-0.1956,-0.1849,-0.1835,-0.2065,-0.2069,-0.2028,-0.2029,-0.2029,-0.2029,0,-0.1785,-0.1818,-0.1834,-0.1882,-0.1898,-0.1906,-0.1967,-0.1981,-0.2032,-0.2055,-0.2063,-0.2107,-0.2077,-0.2068,-0.2028,-0.1992,-0.1941,-0.1905,-0.1774,-0.1747,-0.1876,-0.188,-0.1801,-0.1798,-0.1796,-0.1794,-0.1792,0,-0.1754,-0.1755,-0.1805,-0.1814,-0.1832,-0.1861,-0.1879,-0.1948,-0.197,-0.2032,-0.2031,-0.2031,-0.2001,-0.1928,-0.1869,-0.1796,-0.1862,-0.1631,-0.1624,-0.1852,-0.185,-0.1857,-0.1864,-0.1455,-0.1451,-0.1448,-0.1445,0,-0.169,-0.1709,-0.1722,-0.1741,-0.1758,-0.1784,-0.1815,-0.183,-0.1901,-0.1919,-0.1919,-0.1899,-0.1851,-0.1715,-0.164,-0.1587,-0.1636,-0.1556,-0.1811,-0.1541,-0.1523,-0.1523,-0.1541,-0.1414,-0.1417,-0.1419,-0.1421,-0.1422,-0.1634,-0.1629,-0.1642,-0.1651,-0.1673,-0.1667,-0.1644,-0.1688,-0.169,-0.1681,-0.1749,-0.1671,-0.1654,-0.1463,-0.1377,-0.1315,-0.1434,-0.1367,-0.1378,-0.1394,-0.137,-0.135,-0.1202,-0.1204,-0.1205,-0.1207,-0.1208,0,-0.1545,-0.1544,-0.1549,-0.1544,-0.1516,-0.1563,-0.157,-0.1523,-0.1475,-0.1497,-0.1472,-0.131,-0.1214,-0.1202,-0.1061,-0.1028,-0.1028,-0.0978,-0.0982,-0.1014,-0.1041,-0.1001,-0.0735,-0.0733,-0.0732,-0.073,0,0,-0.1498,-0.1459,-0.1457,-0.1374,-0.137,-0.129,-0.1261,-0.1216,-0.1204,-0.1125,-0.1089,-0.116,-0.1178,-0.0963,-0.0906,-0.0799,-0.0898,-0.0754,-0.1136,-0.1173,-0.1199,-0.1267,-0.124,0,0,0,0,0]},{"header":{"parameterUnit":"m.s-1","parameterCategory":2,"la1":30.2991,"la2":30.254,"lo1":-89.0895,"lo2":-89.0444,"dy":0.0017,"dx":0.0017,"nx":28,"ny":28,"refTime":"2023-09-09T09:00:00:Z","depth":"2","parameterNumber":3,"parameterNumberName":"V-component_of_CURRENTS"},"data":[0,0,0,0,0,0,0,0,0,0,0,0,0,0,0,0,0,0,0,0,0,0,0,0,0,0,0,0,0,0,0,0,0,0,0,0,0,0,0,0,0,0,0,0,0,0,0,0,0,0,0,0,0,0,0,0,0,0,-0.0325,-0.0324,0,-0.0233,-0.0232,-0.0231,-0.017,-0.0169,-0.0169,-0.0169,-0.0043,-0.004,-0.0037,0,0,0,0,0,0,0,0,0,0,0,0,0,-0.0391,-0.0391,-0.0325,-0.0324,-0.0323,-0.0233,-0.0232,-0.0231,-0.017,-0.0169,-0.0169,-0.0168,-0.0044,-0.004,-0.0037,0,0,0,0,0,0,0,0,0,0,0,0,0,-0.0337,-0.039,-0.0325,-0.0282,-0.0277,-0.0233,-0.0232,-0.023,-0.017,-0.0169,-0.0169,-0.0168,-0.0045,-0.004,-0.0036,-0.0021,0,0,-0.0022,-0.0021,0,0,0,0,0,0,0,0,-0.034,-0.0335,-0.0289,-0.0284,-0.0279,-0.0212,-0.0209,-0.0158,-0.017,-0.021,-0.0169,-0.0168,-0.0097,-0.0088,-0.0072,-0.0015,-0.0009,-0.0022,-0.0019,-0.0017,-0.0016,0,0,0,0,0,0,0,-0.0344,-0.0338,-0.0288,-0.0288,-0.0282,-0.0247,-0.024,-0.0199,-0.0157,-0.0207,-0.0202,-0.0192,-0.0094,-0.0077,-0.0069,-0.0007,-0.0022,-0.0018,-0.0015,-0.0014,0.0077,0.0076,0,0,0,0,0,0,-0.036,-0.0342,-0.0291,-0.0286,-0.0309,-0.0247,-0.0238,-0.0234,-0.0158,-0.0146,-0.0193,-0.019,-0.0085,-0.0074,-0.0064,-0.0034,-0.0017,-0.0013,-0.0011,0.0077,0.0077,0.0076,0,0,0,0,0,0,-0.0361,-0.0356,-0.0295,-0.0311,-0.0301,-0.0247,-0.0243,-0.0233,-0.0215,-0.0148,-0.0136,-0.0185,-0.0084,-0.007,-0.003,-0.0029,-0.0011,-0.0007,0.0077,0.0077,0.0076,0.0021,0,0,0,0,0,0,-0.0364,-0.0358,-0.0365,-0.0313,-0.0301,-0.0275,-0.0243,-0.0231,-0.021,-0.0205,-0.0138,-0.0125,-0.0082,-0.0037,-0.0025,-0.0023,-0.0004,0.0078,0.0077,0.0077,0.0023,0.0019,0.0015,0,0,0,0,0,-0.0367,-0.0376,-0.0366,-0.036,-0.0312,-0.0276,-0.0267,-0.0225,-0.0211,-0.0207,-0.0161,-0.0127,-0.0032,-0.0034,-0.002,-0.0016,0.0078,0.0077,0.0077,0.0025,0.002,0.0015,0,0,0,0,0,0,-0.0407,-0.0369,-0.0357,-0.0355,-0.0323,-0.0266,-0.0259,-0.0232,-0.0193,-0.0189,-0.0127,-0.0112,-0.0078,-0.0042,-0.0045,0.0007,0.0027,0.0029,-0.0017,-0.0021,-0.0025,-0.0036,0.0,0,0,0,0,0,-0.0422,-0.0421,-0.0376,-0.0376,-0.0363,-0.0315,-0.0297,-0.0269,-0.0226,-0.0208,-0.0161,-0.0113,-0.0071,-0.0043,-0.0004,0.0028,0.0063,0.0038,0.0033,0.003,0.003,0.0078,0.0079,0.0074,0.0074,0.0074,0,0,-0.0438,-0.0418,-0.0417,-0.0385,-0.0357,-0.034,-0.0302,-0.028,-0.0263,-0.0201,-0.0169,-0.0127,-0.0068,-0.0033,-0.0015,-0.0001,0.0048,0.0029,0.0025,0.0027,0.0078,0.0078,0.0079,0.0074,0.0074,0.0074,0,0,-0.0462,-0.0452,-0.0455,-0.0433,-0.0398,-0.0366,-0.0364,-0.0313,-0.0288,-0.0255,-0.0207,-0.0166,-0.0103,-0.0056,-0.0025,-0.0029,0.002,-0.002,-0.004,0.0007,0.0008,0.0009,0.0047,0.0052,-0.0016,-0.0017,-0.0017,0,-0.0483,-0.0482,-0.045,-0.0444,-0.043,-0.0382,-0.0378,-0.0346,-0.0288,-0.0268,-0.0254,-0.016,-0.0112,-0.0058,-0.0059,-0.0036,-0.0007,-0.0026,0.0002,0.0004,0.0006,0.0045,0.0051,-0.0019,-0.0019,-0.0019,-0.0018,0,-0.0504,-0.0503,-0.0503,-0.0482,-0.0463,-0.0454,-0.0407,-0.0387,-0.0356,-0.0317,-0.0267,-0.0202,-0.0144,-0.0124,-0.0089,-0.0049,-0.0033,-0.0014,0.0013,0.0003,0.0045,0.0052,-0.0023,-0.0022,-0.0021,-0.0021,0,0,-0.0537,-0.0523,-0.0521,-0.0523,-0.0485,-0.0471,-0.0448,-0.0409,-0.0393,-0.0339,-0.0308,-0.0235,-0.02,-0.0163,-0.0113,-0.0068,-0.0028,-0.004,-0.0036,-0.0005,0.0069,0.0096,0.0107,-0.0005,-0.0004,-0.0003,0.0089,0,-0.0561,-0.0574,-0.0551,-0.0556,-0.0557,-0.0513,-0.0497,-0.0456,-0.0413,-0.0372,-0.0299,-0.0254,-0.0214,-0.0187,-0.0137,-0.0053,-0.001,-0.0055,0.0077,0.0081,0.0104,0.0117,0.0099,0.0182,0.0097,0.0098,0.0099,0,-0.0581,-0.0589,-0.0607,-0.0599,-0.0595,-0.0588,-0.0556,-0.0534,-0.0464,-0.043,-0.0368,-0.0308,-0.0228,-0.02,-0.0064,-0.0096,-0.0022,0.004,0.0046,0.0097,0.0122,0.018,0.0199,0.0112,0.0111,0.011,0.0109,0,-0.0621,-0.0623,-0.0645,-0.0642,-0.0625,-0.0622,-0.0608,-0.0553,-0.0534,-0.0463,-0.0437,-0.0338,-0.0282,-0.018,-0.0048,-0.0055,0.0099,0.011,0.0203,0.0205,0.0231,0.0234,0.0199,0.0199,0.0199,0.0199,0.0199,0,-0.0652,-0.0666,-0.067,-0.068,-0.0702,-0.0671,-0.0675,-0.0641,-0.0591,-0.0564,-0.0473,-0.0422,-0.0275,-0.0165,-0.0056,0.0101,0.0097,0.0205,0.0236,0.021,0.021,0.0182,0.0179,0.0202,0.0202,0.0201,0.02,0,-0.0687,-0.069,-0.0717,-0.0721,-0.0723,-0.0739,-0.0728,-0.0725,-0.067,-0.0631,-0.0609,-0.0477,-0.0329,-0.0177,0.0002,0.0096,0.0238,0.0291,0.0247,0.0271,0.0312,0.0304,0.0405,0.0407,0.0408,0.041,0.0411,0,-0.0706,-0.0725,-0.0756,-0.078,-0.0784,-0.0803,-0.0811,-0.0771,-0.0757,-0.0658,-0.0635,-0.0487,-0.0365,-0.0093,0.0096,0.0296,0.0289,0.0387,0.0376,0.0315,0.0335,0.0325,0.0316,0.0386,0.0387,0.0387,0.0388,0,-0.074,-0.0755,-0.0782,-0.0834,-0.0859,-0.0883,-0.0885,-0.0884,-0.0823,-0.0765,-0.0655,-0.0548,-0.0284,-0.005,0.0202,0.0311,0.0353,0.0407,0.0373,0.0332,0.0304,0.0321,0.0312,0.0393,0.0393,0.0392,0.0392,0.0392,-0.0763,-0.08,-0.0839,-0.0884,-0.0917,-0.0942,-0.0949,-0.0926,-0.0886,-0.0772,-0.0674,-0.0483,-0.0268,0.0108,0.0281,0.0436,0.0432,0.0472,0.0467,0.0463,0.0439,0.0416,0.0521,0.0521,0.0522,0.0522,0.0522,0,-0.079,-0.083,-0.0883,-0.0933,-0.0969,-0.0974,-0.0977,-0.095,-0.0887,-0.0762,-0.0627,-0.0368,-0.0106,0.011,0.037,0.052,0.0496,0.0533,0.0477,0.0471,0.0466,0.044,0.0524,0.0524,0.0525,0.0525,0,0,-0.0805,-0.0861,-0.0892,-0.0956,-0.0988,-0.1005,-0.0998,-0.0935,-0.0837,-0.0693,-0.0543,-0.0352,-0.0085,0.01,0.0286,0.0417,0.0399,0.0421,0.0405,0.0312,0.0305,0.0421,0.0373,0,0,0,0,0]}],[{"header":{"parameterUnit":"m.s-1","parameterCategory":2,"la1":30.2991,"la2":30.254,"lo1":-89.0895,"lo2":-89.0444,"dy":0.0017,"dx":0.0017,"nx":28,"ny":28,"refTime":"2023-09-09T09:00:00:Z","depth":"4","parameterNumber":2,"parameterNumberName":"U-component_of_CURRENTS"},"data":[0,0,0,0,0,0,0,0,0,0,0,0,0,0,0,0,0,0,0,0,0,0,0,0,0,0,0,0,0,0,0,0,0,0,0,0,0,0,0,0,0,0,0,0,0,0,0,0,0,0,0,0,0,0,0,0,0,0,-0.1411,-0.1411,0,-0.1441,-0.1441,-0.1442,-0.1483,-0.1483,-0.1484,-0.1484,-0.1539,-0.154,-0.1541,0,0,0,0,0,0,0,0,0,0,0,0,0,-0.1417,-0.1417,-0.1411,-0.1411,-0.1412,-0.1441,-0.1441,-0.1442,-0.1483,-0.1483,-0.1484,-0.1484,-0.1539,-0.154,-0.1541,0,0,0,0,0,0,0,0,0,0,0,0,0,-0.143,-0.1417,-0.1411,-0.1433,-0.1436,-0.1441,-0.1441,-0.1442,-0.1482,-0.1483,-0.1484,-0.1484,-0.1538,-0.154,-0.1541,-0.1538,0,0,-0.1546,-0.1547,0,0,0,0,0,0,0,0,-0.1429,-0.143,-0.143,-0.1432,-0.1434,-0.1457,-0.1464,-0.1474,-0.1482,-0.1467,-0.1484,-0.1485,-0.1512,-0.1515,-0.1523,-0.154,-0.1543,-0.1546,-0.1547,-0.1548,-0.1548,0,0,0,0,0,0,0,-0.1428,-0.1429,-0.1426,-0.143,-0.1433,-0.1451,-0.1454,-0.1466,-0.1488,-0.1469,-0.1471,-0.147,-0.1514,-0.1521,-0.1524,-0.1543,-0.1546,-0.1548,-0.1549,-0.1549,-0.1656,-0.1658,0,0,0,0,0,0,-0.1417,-0.1428,-0.1425,-0.1426,-0.143,-0.145,-0.1453,-0.1451,-0.1487,-0.1492,-0.1469,-0.1472,-0.1518,-0.1523,-0.1527,-0.1594,-0.1548,-0.155,-0.155,-0.1654,-0.1657,-0.1659,0,0,0,0,0,0,-0.1417,-0.1416,-0.1423,-0.1426,-0.1428,-0.1449,-0.1446,-0.1451,-0.1488,-0.1487,-0.1494,-0.1505,-0.1519,-0.1524,-0.1572,-0.1593,-0.155,-0.1552,-0.1652,-0.1655,-0.1658,-0.1683,0,0,0,0,0,0,-0.1417,-0.1416,-0.1433,-0.1425,-0.1427,-0.1451,-0.1445,-0.1451,-0.1483,-0.1488,-0.1519,-0.1523,-0.152,-0.157,-0.1573,-0.1595,-0.1553,-0.165,-0.1653,-0.1657,-0.168,-0.1686,-0.1692,0,0,0,0,0,-0.1417,-0.1431,-0.1433,-0.1434,-0.1442,-0.1452,-0.1456,-0.1474,-0.1485,-0.151,-0.1534,-0.1523,-0.1595,-0.1573,-0.1576,-0.1599,-0.1648,-0.1652,-0.1656,-0.1677,-0.1685,-0.1692,0,0,0,0,0,0,-0.144,-0.1436,-0.1439,-0.1451,-0.1462,-0.1458,-0.1484,-0.1492,-0.153,-0.1544,-0.1546,-0.1552,-0.1601,-0.1604,-0.1579,-0.1644,-0.162,-0.1626,-0.1635,-0.1642,-0.1648,-0.1628,-0.1554,0,0,0,0,0,-0.145,-0.1463,-0.1459,-0.1472,-0.1481,-0.1489,-0.1503,-0.1513,-0.1532,-0.1551,-0.1571,-0.1596,-0.1616,-0.1634,-0.1655,-0.1689,-0.1668,-0.1709,-0.1715,-0.172,-0.1709,-0.1702,-0.1705,-0.1673,-0.1673,-0.1673,0,0,-0.1458,-0.146,-0.1467,-0.1479,-0.149,-0.1504,-0.1501,-0.1529,-0.1547,-0.155,-0.1602,-0.1621,-0.1633,-0.1671,-0.1693,-0.1679,-0.1722,-0.1725,-0.1729,-0.1715,-0.1707,-0.171,-0.1712,-0.1676,-0.1675,-0.1675,0,0,-0.1464,-0.1488,-0.1496,-0.1512,-0.1532,-0.154,-0.1554,-0.1573,-0.1597,-0.1638,-0.1645,-0.1678,-0.1719,-0.1723,-0.1729,-0.1783,-0.1756,-0.1803,-0.1813,-0.1807,-0.1809,-0.181,-0.1791,-0.179,-0.1804,-0.1804,-0.1804,0,-0.1475,-0.1481,-0.1502,-0.1515,-0.1531,-0.1558,-0.1571,-0.1597,-0.1632,-0.1648,-0.1665,-0.1719,-0.1735,-0.1756,-0.1779,-0.1793,-0.1783,-0.1778,-0.1811,-0.1812,-0.1812,-0.1793,-0.1792,-0.1806,-0.1805,-0.1805,-0.1805,0,-0.1471,-0.1496,-0.1508,-0.1531,-0.1557,-0.1579,-0.1606,-0.1646,-0.168,-0.1694,-0.1743,-0.1766,-0.1791,-0.1809,-0.1809,-0.1829,-0.1818,-0.1817,-0.1782,-0.1816,-0.1795,-0.1793,-0.1808,-0.1807,-0.1807,-0.1806,0,0,-0.1435,-0.1492,-0.1498,-0.152,-0.1571,-0.1585,-0.1632,-0.1665,-0.1691,-0.1739,-0.1763,-0.1805,-0.182,-0.1828,-0.1838,-0.1837,-0.1838,-0.1833,-0.1832,-0.1795,-0.1818,-0.1699,-0.1686,-0.1844,-0.1844,-0.1844,-0.1801,0,-0.1424,-0.1452,-0.1486,-0.1526,-0.1546,-0.1598,-0.1634,-0.1676,-0.1719,-0.1757,-0.1782,-0.1817,-0.1826,-0.1845,-0.1846,-0.1844,-0.1834,-0.1849,-0.1806,-0.1804,-0.1679,-0.168,-0.1843,-0.1799,-0.1798,-0.1798,-0.1798,0,-0.14,-0.1426,-0.146,-0.1526,-0.154,-0.1572,-0.1638,-0.1674,-0.1731,-0.1764,-0.18,-0.1825,-0.1843,-0.1846,-0.1839,-0.185,-0.1833,-0.1824,-0.1822,-0.1695,-0.1681,-0.176,-0.1794,-0.1794,-0.1794,-0.1795,-0.1795,0,-0.135,-0.1409,-0.144,-0.1462,-0.1537,-0.1568,-0.161,-0.1674,-0.1708,-0.1767,-0.1795,-0.1824,-0.184,-0.1832,-0.1823,-0.1835,-0.1798,-0.181,-0.1682,-0.1674,-0.1781,-0.178,-0.1786,-0.1786,-0.1786,-0.1786,-0.1787,0,-0.1314,-0.1344,-0.1425,-0.144,-0.1485,-0.1544,-0.1594,-0.1642,-0.1704,-0.173,-0.1792,-0.1803,-0.1838,-0.1829,-0.1816,-0.1729,-0.1789,-0.1666,-0.1647,-0.1796,-0.1798,-0.1779,-0.1779,-0.1785,-0.1785,-0.1786,-0.1786,0,-0.1255,-0.1309,-0.1352,-0.1434,-0.1465,-0.1495,-0.1584,-0.1608,-0.168,-0.1713,-0.1731,-0.1788,-0.1765,-0.1775,-0.1753,-0.17,-0.1646,-0.16,-0.1746,-0.174,-0.1529,-0.1532,-0.1446,-0.1442,-0.1438,-0.1434,-0.1432,0,-0.1223,-0.124,-0.1336,-0.1364,-0.1406,-0.1465,-0.1499,-0.1586,-0.161,-0.1683,-0.1681,-0.1696,-0.1713,-0.1576,-0.1609,-0.1549,-0.1535,-0.1497,-0.1518,-0.1499,-0.1491,-0.15,-0.1507,-0.1425,-0.1424,-0.1423,-0.1422,0,-0.116,-0.1207,-0.1242,-0.1297,-0.1343,-0.1385,-0.144,-0.1445,-0.1525,-0.1613,-0.1573,-0.1546,-0.1512,-0.1486,-0.144,-0.1408,-0.1518,-0.1456,-0.1464,-0.1484,-0.1473,-0.1471,-0.1483,-0.1408,-0.141,-0.1412,-0.1413,0,-0.1115,-0.1125,-0.1174,-0.121,-0.1266,-0.1269,-0.1316,-0.1327,-0.1358,-0.1444,-0.1425,-0.1439,-0.1491,-0.1411,-0.1377,-0.1324,-0.1309,-0.1271,-0.1289,-0.1305,-0.1278,-0.1245,-0.1075,0,0,0,0,0,-0.1059,-0.1053,-0.108,-0.1107,-0.1155,-0.1181,-0.1256,-0.1303,-0.1386,-0.1317,-0.1365,-0.1326,-0.1263,-0.1282,-0.1195,-0.1313,-0.1317,-0.1207,-0.1284,-0.1332,-0.1348,-0.133,0,0,0,0,0,0,-0.102,-0.104,-0.1041,-0.1002,-0.1001,-0.1034,-0.1071,-0.1133,-0.1107,-0.1198,-0.117,-0.1242,-0.1203,-0.1283,-0.1165,-0.1169,-0.1187,-0.1232,-0.1228,-0.1323,-0.1338,-0.135,-0.1337,0,0,0,0,0]},{"header":{"parameterUnit":"m.s-1","parameterCategory":2,"la1":30.2991,"la2":30.254,"lo1":-89.0895,"lo2":-89.0444,"dy":0.0017,"dx":0.0017,"nx":28,"ny":28,"refTime":"2023-09-09T09:00:00:Z","depth":"4","parameterNumber":3,"parameterNumberName":"V-component_of_CURRENTS"},"data":[0,0,0,0,0,0,0,0,0,0,0,0,0,0,0,0,0,0,0,0,0,0,0,0,0,0,0,0,0,0,0,0,0,0,0,0,0,0,0,0,0,0,0,0,0,0,0,0,0,0,0,0,0,0,0,0,0,0,-0.023,-0.0229,0,-0.0184,-0.0183,-0.0183,-0.0153,-0.0153,-0.0153,-0.0153,-0.0082,-0.008,-0.0079,0,0,0,0,0,0,0,0,0,0,0,0,0,-0.0257,-0.0257,-0.023,-0.0229,-0.0229,-0.0184,-0.0183,-0.0183,-0.0153,-0.0153,-0.0153,-0.0153,-0.0083,-0.0081,-0.0079,0,0,0,0,0,0,0,0,0,0,0,0,0,-0.0231,-0.0257,-0.023,-0.0209,-0.0207,-0.0184,-0.0183,-0.0182,-0.0153,-0.0153,-0.0153,-0.0153,-0.0083,-0.0081,-0.0078,-0.0066,0,0,-0.007,-0.0069,0,0,0,0,0,0,0,0,-0.0233,-0.023,-0.0213,-0.0211,-0.0208,-0.0175,-0.0167,-0.0142,-0.0153,-0.0173,-0.0153,-0.0153,-0.0111,-0.0106,-0.0098,-0.0063,-0.006,-0.007,-0.0068,-0.0067,-0.0066,0,0,0,0,0,0,0,-0.0235,-0.0232,-0.0211,-0.0212,-0.0209,-0.019,-0.0187,-0.0162,-0.0143,-0.0171,-0.0169,-0.0165,-0.011,-0.01,-0.0096,-0.0059,-0.007,-0.0068,-0.0066,-0.0065,0.0009,0.0009,0,0,0,0,0,0,-0.0244,-0.0234,-0.0213,-0.021,-0.0221,-0.019,-0.0186,-0.0185,-0.0144,-0.0138,-0.0165,-0.0164,-0.0105,-0.0099,-0.0093,-0.0068,-0.0067,-0.0065,-0.0063,0.0009,0.0009,0.001,0,0,0,0,0,0,-0.0244,-0.0242,-0.0214,-0.0221,-0.0216,-0.019,-0.0189,-0.0184,-0.0177,-0.0139,-0.0133,-0.0164,-0.0105,-0.0097,-0.007,-0.0066,-0.0064,-0.0061,0.0008,0.0009,0.0009,-0.0024,0,0,0,0,0,0,-0.0245,-0.0243,-0.0251,-0.0222,-0.0216,-0.0206,-0.0189,-0.0184,-0.0175,-0.0173,-0.0136,-0.0129,-0.0104,-0.0075,-0.0068,-0.0062,-0.0059,0.0008,0.0008,0.0009,-0.0023,-0.0024,-0.0026,0,0,0,0,0,-0.0247,-0.0256,-0.0252,-0.0249,-0.0226,-0.0206,-0.0201,-0.0181,-0.0175,-0.0174,-0.0146,-0.013,-0.0065,-0.0072,-0.0064,-0.0058,0.0007,0.0008,0.0009,-0.0023,-0.0024,-0.0025,0,0,0,0,0,0,-0.0273,-0.0253,-0.0248,-0.0251,-0.0233,-0.0201,-0.0202,-0.0186,-0.0164,-0.0163,-0.0127,-0.0118,-0.0093,-0.007,-0.0079,-0.0033,-0.0025,-0.0023,-0.0052,-0.0053,-0.0054,-0.0067,-0.0057,0,0,0,0,0,-0.0283,-0.0286,-0.026,-0.0265,-0.0258,-0.0232,-0.0224,-0.0209,-0.0183,-0.0174,-0.0146,-0.0114,-0.0083,-0.0066,-0.0038,-0.0015,0.001,-0.0004,-0.0005,-0.0006,-0.001,0.0034,0.0036,0.0012,0.0012,0.0012,0,0,-0.0296,-0.0286,-0.0288,-0.0272,-0.0258,-0.0248,-0.0226,-0.0217,-0.0207,-0.0169,-0.0151,-0.0121,-0.0078,-0.0051,-0.0037,-0.0031,0.0014,-0.0005,-0.0006,-0.001,0.0035,0.0037,0.0039,0.0013,0.0013,0.0013,0,0,-0.0315,-0.0313,-0.0318,-0.0305,-0.0287,-0.0268,-0.0267,-0.0238,-0.0223,-0.0202,-0.0169,-0.0136,-0.0095,-0.0058,-0.0035,-0.0025,0.0003,-0.0017,-0.0029,0.0013,0.0015,0.0017,0.0048,0.0053,-0.0014,-0.0014,-0.0014,0,-0.0331,-0.0334,-0.0316,-0.0314,-0.0308,-0.0279,-0.0278,-0.0258,-0.0223,-0.0209,-0.0202,-0.0131,-0.0097,-0.005,-0.0045,-0.0028,-0.0005,-0.003,0.0011,0.0014,0.0016,0.0047,0.0054,-0.0016,-0.0015,-0.0015,-0.0015,0,-0.0347,-0.0352,-0.0354,-0.0343,-0.0333,-0.033,-0.0299,-0.0286,-0.0268,-0.0241,-0.0202,-0.0152,-0.0109,-0.0089,-0.0064,-0.0023,-0.0015,0.0,0.0011,0.0016,0.0049,0.0056,-0.0018,-0.0017,-0.0017,-0.0016,0,0,-0.037,-0.0367,-0.0368,-0.0372,-0.035,-0.0344,-0.0328,-0.0301,-0.0292,-0.0252,-0.023,-0.0169,-0.0143,-0.0114,-0.0073,-0.0033,0.0008,-0.0013,-0.001,0.0011,0.0094,0.0086,0.0093,0.0029,0.003,0.0031,0.0107,0,-0.0387,-0.0402,-0.0389,-0.0398,-0.0401,-0.0374,-0.0364,-0.0337,-0.0307,-0.0278,-0.0218,-0.0184,-0.0151,-0.0131,-0.0084,-0.0014,0.0026,-0.0014,0.0091,0.0094,0.0081,0.01,0.0035,0.0112,0.0114,0.0115,0.0116,0,-0.04,-0.041,-0.0429,-0.0432,-0.043,-0.0431,-0.0414,-0.0399,-0.0347,-0.0324,-0.0275,-0.0228,-0.0158,-0.0136,-0.0017,-0.0046,0.0017,0.007,0.0075,0.0083,0.0099,0.0108,0.0129,0.0128,0.0127,0.0126,0.0125,0,-0.0424,-0.0434,-0.0456,-0.0457,-0.0453,-0.0458,-0.0454,-0.0417,-0.0405,-0.0352,-0.0333,-0.0249,-0.0204,-0.0115,-0.0006,-0.001,0.0121,0.0132,0.0185,0.0185,0.0183,0.018,0.0213,0.0213,0.0213,0.0212,0.0212,0,-0.044,-0.0457,-0.0476,-0.0487,-0.0513,-0.0496,-0.0509,-0.0487,-0.0453,-0.0433,-0.0363,-0.032,-0.0197,-0.0105,-0.0012,0.0107,0.012,0.0185,0.0207,0.0167,0.0161,0.0188,0.0184,0.0215,0.0215,0.0214,0.0214,0,-0.0457,-0.0469,-0.0499,-0.0518,-0.0526,-0.0547,-0.0555,-0.0555,-0.052,-0.0489,-0.0473,-0.0366,-0.0245,-0.0122,0.0032,0.0097,0.0211,0.025,0.019,0.0208,0.0246,0.024,0.0314,0.0314,0.0315,0.0315,0.0315,0,-0.0465,-0.0484,-0.053,-0.0557,-0.057,-0.0599,-0.0613,-0.0593,-0.0581,-0.0508,-0.0485,-0.0372,-0.0289,-0.0076,0.0044,0.0215,0.0238,0.0286,0.0271,0.0244,0.0259,0.0252,0.0245,0.0316,0.0316,0.0316,0.0316,0,-0.0479,-0.0504,-0.0532,-0.0591,-0.0623,-0.0652,-0.0664,-0.0659,-0.0618,-0.0589,-0.0478,-0.0361,-0.0226,-0.0068,0.0061,0.0184,0.0248,0.029,0.029,0.0277,0.0247,0.026,0.0253,0.0317,0.0317,0.0317,0.0317,0,-0.0492,-0.0522,-0.0568,-0.0612,-0.0659,-0.0681,-0.069,-0.0657,-0.0635,-0.0542,-0.0506,-0.0353,-0.0262,-0.0083,0.0039,0.0153,0.0181,0.0208,0.0213,0.0212,0.0156,0.0102,0.015,0,0,0,0,0,-0.0499,-0.0533,-0.0583,-0.063,-0.0676,-0.0696,-0.0706,-0.0701,-0.0662,-0.0584,-0.0539,-0.0405,-0.0206,-0.0115,0.0,0.0029,0.0182,0.0164,0.0211,0.0324,0.0323,0.0273,0,0,0,0,0,0,-0.0506,-0.0556,-0.0581,-0.063,-0.0662,-0.07,-0.0708,-0.0685,-0.0628,-0.0573,-0.0461,-0.0389,-0.0194,-0.0267,0.0001,0.0035,0.0076,0.0263,0.0265,0.0325,0.0324,0.0323,0.0271,0,0,0,0,0]}]]